Location: Bois
(43.3444°N, 1.1510°E)
Time: 03:40:28
(UTC+00:00)

Daily predictions for brighter satellites

Satellite Brightness Start Highest point End
(mag) Time Altitude Azimuth Time Altitude Azimuth Time Altitude Azimuth
Cosmos 1943 Rocket 2.9 04:06:39 48° NE 04:06:39 48° NE 04:10:53 10° NNE
Cosmos 2082 Rocket 4.4 04:15:38 13° S 04:15:38 13° S 04:16:13 10° S
CENTAUR R/B 2.5 04:16:08 73° NNE 04:16:08 73° NNE 04:22:26 10° NE
Cosmos 2297 3.9 04:21:06 64° NE 04:21:06 64° NE 04:25:55 10° NNE
NOSS 3-2 (A) 3.8 04:27:50 50° N 04:27:50 50° N 04:32:53 10° NNE
Cosmos 2278 Rocket 4.5 04:33:50 11° N 04:33:50 11° N 04:34:08 10° N
NOSS 3-2 (C) 3.1 04:33:35 78° SSW 04:34:01 89° SE 04:40:24 10° NE
Envisat 4.0 04:31:57 10° NNE 04:36:51 46° E 04:41:43 10° S
Cosmos 2098 Rocket 4.5 04:37:21 10° SSE 04:40:48 35° E 04:45:02 10° NNE
Meteor 2-3 Rocket 3.6 04:35:28 10° S 04:41:07 88° W 04:46:53 10° N
Cosmos 968 Rocket 3.4 04:42:38 43° SSW 04:44:21 83° ESE 04:49:31 10° NNE
Genesis I 3.6 04:49:24 66° E 04:49:24 66° E 04:53:03 10° SE
Cosmos 921 Rocket 3.4 04:50:35 45° NNE 04:51:43 62° ENE 04:56:07 10° SSE
Meteor 1-26 Rocket 4.2 04:53:51 21° NNW 04:58:00 79° W 05:03:46 10° S
Cosmos 1812 3.3 04:56:57 35° NNE 04:58:18 55° E 05:02:03 10° SSE
Gbstr 26 Del rocket 4.0 05:01:04 31° S 05:01:04 31° S 05:03:59 10° SSE
Cosmos 1570 Rocket 4.4 05:02:26 43° SW 05:02:26 43° SW 05:06:45 10° S
USA 238 DEB 3.6 05:00:10 43° WSW 05:02:09 58° NW 05:08:55 10° NNE
USA 238 3.6 05:00:14 42° WSW 05:02:15 59° NW 05:09:01 10° NNE
Cosmos 1151 Rocket 3.5 05:01:35 15° N 05:05:11 61° E 05:09:30 10° SSE
Cosmos 2344 3.9 05:03:34 37° WNW 05:05:14 42° NW 05:12:43 10° NNE
Cosmos 1766 Rocket 4.2 05:01:13 10° S 05:05:27 55° E 05:09:42 10° NNE
Cosmos 2034 Rocket 4.4 05:09:02 37° W 05:09:02 37° W 05:14:10 10° SSW
USA 215 3.4 05:02:45 10° ESE 05:09:15 73° NE 05:13:03 27° NW
Cosmos 1782 3.3 05:15:56 40° SW 05:15:56 40° SW 05:18:50 10° S
Meteor 1-31 Rocket 2.7 05:11:21 10° NNE 05:15:16 84° ESE 05:19:11 10° SSW
Cosmos 2279 Rocket 4.1 05:09:39 10° N 05:15:52 75° E 05:22:03 10° SSE
Cosmos 1328 Rocket 4.1 05:13:30 10° N 05:17:51 59° E 05:22:08 10° SSE
Cosmos 2369 Rocket 2.0 05:14:15 10° SSW 05:19:49 74° WNW 05:25:27 10° NNE
FALCON 9 DEB 4.4 05:21:07 29° N 05:21:07 29° N 05:23:29 10° NE
SJ-12 3.8 05:16:36 10° N 05:20:42 61° WNW 05:24:45 10° SSW
Cosmos 1862 3.3 05:17:47 10° S 05:21:44 81° E 05:25:41 10° N
COSMO-SKYMED 1 2.5 05:18:46 10° S 05:23:05 68° WSW 05:25:48 22° NNW
H-2A R/B 2.8 05:25:04 10° N 05:28:38 45° WNW 05:32:13 10° SSW
Cosmos 1634 Rocket 4.1 05:24:47 10° NNW 05:30:53 54° W 05:36:55 10° SSW
Cosmos 1867 4.4 05:30:57 28° W 05:31:54 30° WSW 05:36:33 10° S
Cosmos 836 Rocket 4.4 05:27:51 16° NNW 05:32:06 77° WSW 05:37:17 10° SSE
CZ-4B R/B 3.8 05:34:33 10° NNE 05:38:01 45° E 05:41:27 10° S
CZ-4B R/B 4.2 05:37:07 10° ESE 05:39:18 16° ENE 05:41:28 10° NNE
MOS 1-B Rocket 4.4 05:33:19 10° SSW 05:39:22 41° W 05:44:43 10° NNW
Cosmos 1408 Rocket 4.0 05:36:35 10° S 05:40:49 62° E 05:45:04 10° NNE
Cosmos 1656 Rocket 3.5 05:38:09 10° SW 05:43:31 65° WNW 05:48:56 10° NNE
Cosmos 1503 Rocket 4.0 05:38:42 10° SSW 05:43:57 85° WNW 05:49:19 10° NNE
CZ-4C R/B 2.6 05:40:59 10° S 05:44:06 63° WSW 05:46:01 21° NNW
DMSP B5D2-2 4.3 05:39:18 10° SSE 05:44:29 74° ENE 05:49:42 10° N
CZ-2C R/B 3.0 05:43:18 10° S 05:48:31 43° W 05:53:40 10° NNW
Cosmos 1943 Rocket 3.3 05:48:15 21° WNW 05:49:30 23° NW 05:53:54 10° N
Cosmos 1486 Rocket 4.3 05:46:39 10° SW 05:51:42 43° WNW 05:56:45 10° N
SL-8 R/B 3.7 05:54:22 20° WNW 05:57:41 75° NNE 06:02:28 10° ESE
Cosmos 1515 Rocket 3.5 05:53:48 10° N 05:58:12 87° E 06:02:31 10° S
Meteor 2-15 4.4 05:53:28 10° N 05:59:33 78° W 06:05:34 10° S
Cosmos 2180 Rocket 4.4 05:55:03 10° NNW 06:01:10 65° W 06:07:12 10° S
Meteor 1-27 Rocket 4.0 05:55:35 10° N 06:01:14 75° E 06:06:58 10° SSE
SJ 16-02 2.0 06:01:01 10° S 06:05:20 59° ESE 06:09:39 10° NNE
Cosmos 773 Rocket 4.1 06:00:17 10° NNW 06:05:32 82° ENE 06:10:43 10° SSE
CENTAUR R/B 3.7 06:03:21 15° WNW 06:07:13 26° NNW 06:13:13 10° NNE
NOAA 11 4.2 06:04:15 10° N 06:09:37 59° WNW 06:15:00 10° SSW
CZ-3 R/B 4.3 06:06:49 10° SSW 06:09:59 12° S 06:12:19 10° SSE
Alouette 2 Rocket 4.1 06:07:44 10° N 06:11:30 51° ENE 06:14:58 10° SSE
Meteor 2-19 Rocket 4.4 06:05:43 10° SSW 06:11:46 74° W 06:17:50 10° N
Cosmos 1340 Rocket 3.0 06:09:42 10° S 06:13:37 73° E 06:17:36 10° NNE
NOAA 12 4.0 06:09:32 10° NNE 06:14:50 81° WNW 06:20:04 10° SSW
Envisat 4.0 06:11:37 10° NNW 06:15:35 23° WNW 06:19:30 10° WSW
Cosmos 1500 Rocket 3.6 06:12:34 10° S 06:17:01 88° E 06:21:31 10° N
SL-27 R/B 2.4 06:15:08 10° NNW 06:18:44 87° WSW 06:22:16 10° SSE
DELTA 2 R/B (1) 4.1 06:14:59 10° WSW 06:20:24 57° S 06:25:50 10° E
Cosmos 1939 Rocket 2.7 06:17:23 10° N 06:21:20 75° WNW 06:25:12 10° SSW
Cosmos 2098 Rocket 4.4 06:19:17 10° WSW 06:22:06 18° WNW 06:25:22 10° NNW
Cosmos 1805 Rocket 4.0 06:24:19 10° S 06:28:40 68° E 06:33:02 10° NNE
Sich 1 3.9 06:26:21 10° S 06:30:32 54° E 06:34:43 10° NNE
H-2A R/B 2.2 06:27:05 10° S 06:31:13 54° W 06:35:29 10° NNW
Cosmos 2026 Rocket 4.4 06:25:03 10° S 06:31:21 71° E 06:37:37 10° NNE
Okean O Rocket 4.0 06:27:57 10° NE 06:31:46 27° E 06:35:31 10° SSE
Meteor 1-25 Rocket 4.5 06:27:19 10° S 06:32:56 77° E 06:38:32 10° NNE
ATLAS 3B R/B 2.9 06:26:58 10° SSW 06:33:26 76° ESE 06:40:15 10° NE
FALCON 9 R/B 4.3 06:17:08 10° W 06:35:10 40° SSW 06:40:50 10° SE
Cosmos 1174 3.0 06:34:03 10° SW 06:37:01 79° WNW 06:40:05 10° NNE
Cosmos 1500 4.1 06:33:30 10° S 06:37:12 53° E 06:40:56 10° NNE
ATLAS 5 CENTAUR R/B 1.2 06:33:41 10° SW 06:37:28 84° NW 06:41:43 10° NE
ADEOS 4.4 06:35:18 10° N 06:39:43 28° WNW 06:44:07 10° WSW
Cosmos 158 Rocket 4.2 06:35:47 10° NNW 06:40:55 75° ENE 06:46:09 10° SSE
